Downstream station:
SHEF ID: ENWK1 CROOKED C NR ENGLEWOOD, KS
STATION TYPE:
Regulating: Stage = 6.50, Flow = 243
PRECIP STAGE RIV-FLOW BAT-LOAD
in ft cfs volt
Ccp-Rev Ccp-Rev Ccp-Rev Ccp-Rev
(US/Central)
01/08 00:00 0.00 2.79 9 12.89
01/08 01:00 0.00 2.84 10 12.83
01/08 02:00 0.00 2.87 10 12.83
01/08 03:00 0.00 2.90 11 12.83
01/08 04:00 0.00 2.93 12 12.77
01/08 05:00 0.00 2.95 12 12.71
01/08 06:00 0.00 2.96 12 12.71
01/08 07:00 0.00 2.97 12 12.65
01/08 08:00 0.00 2.98 13 12.60
01/08 09:00 0.00 2.98 13 14.00
01/08 10:00 0.00 3.00 13 14.82
01/08 11:00 0.00 2.58 5 14.59
01/08 12:00 0.00 2.37 3 14.41
01/08 13:00 0.00 2.37 3 14.24
01/08 14:00 0.00 2.37 3 14.18
01/08 15:00 0.00 2.39 3 14.18
01/08 16:00 0.00 2.43 3 14.24
01/08 17:00 0.00 2.44 4 14.06
01/08 18:00 0.00 2.44 4 13.71
01/08 19:00 0.00 2.44 4 13.18
01/08 20:00 0.00 2.44 4 13.00
01/08 21:00 0.00 2.44 4 12.95
01/08 22:00 0.00 2.45 4 12.95
01/08 23:00 ---- ---- ---- ----